Regional Weather Roundup
Issued by NWS Upton, NY

Home | Current Version | Previous Version | Text Only | Print | Product List | Glossary On
Versions: 1 2 3 4 5 6 7 8 9 10 11 12 13 14 15 16 17 18 19 20 21 22 23 24 25 26 27 28 29 30 31 32 33 34 35 36 37 38 39 40 41 42 43 44 45 46 47 48 49 50
000
ASUS41 KOKX 010705
RWROKX

REGIONAL WEATHER ROUNDUP
NATIONAL WEATHER SERVICE NEW YORK NY
200 AM EST SUN MAR 01 2015

NOTE: "FAIR" INDICATES FEW OR NO CLOUDS BELOW 12,000 FEET WITH NO
SIGNIFICANT WEATHER AND/OR OBSTRUCTIONS TO VISIBILITY.

NYZ071-072-176-178-NJZ106-104-010800-
NEW YORK CITY METRO AREA


CITY           SKY/WX    TMP DP  RH WIND       PRES   REMARKS
CENTRAL PARK   CLEAR     26  -1  31 W3        30.73S
LAGUARDIA APRT PTCLDY    26   4  38 NW5       30.72S WCI  20
KENNEDY INTL   PTCLDY    23   4  44 W5        30.74S WCI  17
NEWARK/LIBERTY PTCLDY    20   5  52 CALM      30.73R
BRNX BOT. GARD   N/A    N/A N/A N/A W1        30.74R
TETERBORO      CLEAR     16   3  56 CALM      30.72S
$$

NYZ177-179-078>081-010800-
LONG ISLAND NEW YORK

CITY           SKY/WX    TMP DP  RH WIND       PRES   REMARKS
FARMINGDALE    CLEAR     16   7  67 CALM      30.72S
ISLIP          CLEAR     14   4  64 CALM      30.70S
SHIRLEY        CLEAR     10   0  63 CALM      30.72F
WESTHAMPTON    CLEAR      1  -7  68 CALM      30.72F
MONTAUK POINT    N/A     18   9  68 SW3       30.71F
$$

NYZ052-065-067-010800-
HUDSON VALLEY

CITY           SKY/WX    TMP DP  RH WIND       PRES   REMARKS
WHITE PLAINS   CLEAR     10   2  69 NW6       30.68R WCI   0
NEWBURGH       CLEAR      3  -2  78 CALM      30.70R
MONTGOMERY     PTCLDY     0  -5  79 CALM      30.69R
POUGHKEEPSIE   PTCLDY     2  -5  72 CALM      30.72R
ALBANY         PTCLDY     3  -2  79 CALM      30.72R
$$

NJZ001-105-106-008-010-013-015-019>022-104-010800-
NEW JERSEY

CITY           SKY/WX    TMP DP  RH WIND       PRES   REMARKS
NEWARK/LIBERTY PTCLDY    20   5  52 CALM      30.73R
TETERBORO      CLEAR     16   3  56 CALM      30.72S
CALDWELL       CLEAR     11   1  64 CALM      30.73R
MORRISTOWN     PTCLDY     9   3  78 CALM      30.72R
SOMERVILLE     CLEAR      6   1  80 CALM      30.71R
SUSSEX         MIX PCPN   3  -4  72 W3        30.69R
ANDOVER          N/A      0  -4  83 CALM      30.69R
TRENTON        CLEAR     15   1  53 NW3       30.71R
MILLVILLE      CLEAR     12   6  77 W3        30.73R
ATLANTIC CITY  CLEAR     15   8  73 CALM      30.73S
WRIGHTSTOWN    CLEAR     11   6  80 CALM      30.71R
TOMS RIVER     CLEAR      9   5  85 CALM      30.73S
BELMAR         CLEAR     18   7  62 CALM      30.71R
$$

PAZ047>061-062-071-010800-
EASTERN PENNSYLVANIA

CITY           SKY/WX    TMP DP  RH WIND       PRES   REMARKS
PHILADELPHIA   PTCLDY    22   9  57 SW5       30.74R WCI  16
ALLENTOWN      CLEAR      7  -1  70 CALM      30.70R
SCRANTON       CLEAR     10  -3  55 E7        30.63S WCI  -1
$$

CTZ002-004>006-009-010-012-RIZ004-006-007-MAZ004-011-015-010800-
SOUTHERN NEW ENGLAND
 IN CT

CITY           SKY/WX    TMP DP  RH WIND       PRES   REMARKS
BRADLEY INTL   PTCLDY     5  -4  66 W3        30.69F
HARTFORD       CLEAR      5   2  87 CALM      30.72F
DANBURY        PTCLDY     1  -7  68 CALM      30.71R
WTRBRY/OXFORD  CLEAR     10  -8  44 CALM      30.66S
BRIDGEPORT     CLEAR     14   6  70 CALM      30.72S
MERIDEN        CLEAR      5  -3  69 CALM      30.71F
NEW HAVEN      CLEAR      8   3  80 CALM      30.71F
CHESTER        FAIR      19   1  45 CALM      30.68F
GROTON         CLEAR      9   6  88 CALM      30.70F
WILLIMANTIC    CLEAR      0  -5  79 CALM      30.71F

 IN RI

CITY           SKY/WX    TMP DP  RH WIND       PRES   REMARKS
PROVIDENCE     CLEAR     13   0  56 W6        30.70F WCI   4
BLOCK ISLAND   CLEAR     25   9  50 N6        30.68F WCI  18
WESTERLY       CLEAR      5   1  83 CALM      30.71F

 IN MA

CITY           SKY/WX    TMP DP  RH WIND       PRES   REMARKS
BOSTON         CLEAR     20   3  48 W5        30.71S WCI  13
WORCESTER      CLEAR     16  -3  43 W13       30.61F WCI   2
WESTFIELD      CLEAR      0  -5  79 CALM      30.69F
PROVINCETOWN   CLEAR     23  10  58 W7        30.70F WCI  15
NANTUCKET      CLEAR     18  13  80 NW5       30.70F WCI  11
$$

ANZ330-335-338-340-345-350-353-355-010800-
COASTAL MARINE OBSERVATIONS


STATION/POSITION TIME  SKY/WX   TEMP    WIND        PRES    VSBY  WAVE
                                AIR SEA DIR/SP/G                  HT/PER
                 (UTC)          (F)     (DEG/KT/KT) (MB)    (MI)  (FT/S)
NY HARB ENTRANCE 0700            28 37  260/  4/  6 1040.3          2/ 9
4S FIRE IS       NOT AVBL
20S FIRE ISLAND  0600               37              1041.0          2/ 9
23SW MTP         0700                                 N/A           2/ 9
HUDSON CANYON    NOT AVBL
EXECUTION ROCKS  NOT AVBL
WESTERN LI SOUND NOT AVBL
CENTRAL LI SOUND NOT AVBL
EASTERN LI SOUND NOT AVBL
ROBBINS REEF     0700            24     290/  5/  5 1039.3
$$


>>>>>>>>>>>>>>>>>>>>>>>>>>>> KEY <<<<<<<<<<<<<<<<<<<<<<<<<<<
>                                                          <
>     SKY/WX - SKY CONDITION/PRESENT WEATHER               <
>     TMP    - TEMPERATURE IN FAHRENHEIT                   <
>     DP     - DEWPOINT IN FAHRENHEIT                      <
>     RH     - RELATIVE HUMIDITY IN PERCENT                <
>     WIND   - DIRECTION AND SPEED IN MPH                  <
>     PRES   - MEAN SEA LEVEL PRESSURE IN INCHES OF HG     <
>     WCI    - WIND CHILL INDEX                            <
>     VSB    - VISIBILITY IN MILES                         <
>     HX     - HEAT INDEX                                  <
>     TC     - TEMPERATURE IN CELSIUS                      <
>     VRB    - VARIABLE WIND DIRECTION                     <
>                                                          <
>>>>>>>>>>>>>>>>>>>>>>>>>>>> KEY <<<<<<<<<<<<<<<<<<<<<<<<<<<




USA.gov is the U.S. government's official web portal to all federal, state and local government web resources and services.